Weather History for KEWN - March, 2014

Change the Weather History Date:

Monday, March 17, 2014

  Actual Average Record
Temperature  
Mean Temperature 42 °F 54 °F  
Max Temperature 45 °F 65 °F 84 °F (2015)
Min Temperature 38 °F 42 °F 27 °F (1970)
Degree Days  
Heating Degree Days 23 12  
Month to date heating degree days 273 235  
Since 1 July heating degree days 2347 2381  
Cooling Degree Days 0 0  
Month to date cooling degree days 1 0  
Year to date cooling degree days 6 3  
Moisture  
Dew Point 38 °F    
Average Humidity 87    
Maximum Humidity 92    
Minimum Humidity 82    
Precipitation  
Precipitation 0.58 in 0.14 in 1.47 in (1983)
Month to date precipitation 3.45 2.49  
Year to date precipitation 9.98 10.17  
Snow  
Snow 0.00 in - - ()
Month to date snowfall 0.0  
Since 1 July snowfall 14.0  
Snow Depth 0.00 in    
Sea Level Pressure  
Sea Level Pressure 29.86 in    
Wind  
Wind Speed 12 mph (NNE)    
Max Wind Speed 17 mph    
Max Gust Speed 23 mph    
Visibility 8 miles    
Events Rain    
T = Trace of Precipitation, MM = Missing Value Source: NWS Daily Summary

Daily Weather History Graph

Daily Weather History Graph

Search for Another Location

Airport or City:

Trip Planner

Search our weather history database for the weather conditions in past years. The results will help you decide how hot, cold, wet, or windy it might be!

Date:

Astronomy

Mar. 17, 2014 Rise Set
Actual Time 7:16 AM EDT 7:17 PM EDT
Civil Twilight 6:50 AM EDT 7:42 PM EDT
Nautical Twilight 6:21 AM EDT 8:12 PM EDT
Astronomical Twilight 5:51 AM EDT 8:41 PM EDT
Moon 8:28 PM EDT (3/17) 7:33 AM EDT (3/17)
Length of Visible Light 12h 51m
Length of Day
12h 01m
Full, 99% of the Moon is Illuminated
Mar 17
Full
Mar 23
Last Quarter
Mar 30
New
Apr 7
First Quarter
Apr 15
Full

Hourly Weather History & Observations

Time (EDT) Temp. Windchill Dew Point Humidity Pressure Visibility Wind Dir Wind Speed Gust Speed Precip Events Conditions
12:54 AM 46.0 °F 40.6 °F 43.0 °F 89% 29.79 in 6.0 mi NNE 11.5 mph 19.6 mph 0.05 in Rain Rain
1:54 AM 45.0 °F 39.7 °F 42.1 °F 90% 29.77 in 8.0 mi NNE 10.4 mph - 0.05 in Rain Light Rain
2:54 AM 44.1 °F 38.1 °F 41.0 °F 89% 29.79 in 10.0 mi North 11.5 mph - 0.04 in Rain Light Rain
3:54 AM 43.0 °F 37.2 °F 39.9 °F 89% 29.79 in 10.0 mi North 10.4 mph - 0.02 in Rain Light Rain
4:54 AM 43.0 °F 36.0 °F 39.0 °F 86% 29.77 in 10.0 mi NNE 13.8 mph - 0.01 in Rain Light Rain
5:54 AM 42.1 °F 36.1 °F 37.9 °F 85% 29.80 in 10.0 mi North 10.4 mph - 0.02 in Rain Light Rain
6:54 AM 41.0 °F 33.9 °F 37.9 °F 89% 29.81 in 10.0 mi North 12.7 mph - 0.00 in Rain Light Rain
7:54 AM 41.0 °F 33.5 °F 37.0 °F 86% 29.85 in 6.0 mi NNE 13.8 mph 19.6 mph 0.02 in Rain Light Rain
8:07 AM 41.0 °F 34.3 °F 37.4 °F 87% 29.86 in 9.0 mi NNE 11.5 mph - 0.00 in Rain Light Rain
8:54 AM 39.9 °F 32.1 °F 36.0 °F 86% 29.86 in 10.0 mi NNE 13.8 mph 23.0 mph 0.01 in Rain Light Rain
9:54 AM 39.9 °F 31.8 °F 37.0 °F 89% 29.86 in 7.0 mi NNE 15.0 mph 18.4 mph 0.01 in Rain Light Rain
10:54 AM 41.0 °F 34.7 °F 37.0 °F 86% 29.86 in 7.0 mi NNE 10.4 mph - 0.01 in Rain Light Rain
11:54 AM 41.0 °F 34.3 °F 37.0 °F 86% 29.88 in 10.0 mi NNE 11.5 mph 21.9 mph 0.00 in   Overcast
12:54 PM 41.0 °F 34.3 °F 37.9 °F 89% 29.89 in 10.0 mi NNE 11.5 mph - N/A   Overcast
1:54 PM 42.1 °F 36.1 °F 37.9 °F 85% 29.88 in 5.0 mi North 10.4 mph - 0.00 in   Overcast
2:54 PM 42.1 °F 35.2 °F 39.0 °F 89% 29.87 in 8.0 mi NNE 12.7 mph - N/A   Overcast
3:54 PM 43.0 °F 36.8 °F 39.0 °F 86% 29.87 in 9.0 mi NNE 11.5 mph - 0.01 in Rain Light Rain
4:54 PM 42.1 °F 36.6 °F 37.9 °F 85% 29.88 in 9.0 mi NNE 9.2 mph 18.4 mph 0.03 in Rain Light Rain
5:54 PM 42.1 °F 35.7 °F 37.9 °F 85% 29.89 in 10.0 mi NNE 11.5 mph - 0.03 in Rain Light Rain
6:54 PM 39.9 °F 32.1 °F 37.0 °F 89% 29.90 in 8.0 mi NNE 13.8 mph - 0.04 in Rain Light Rain
7:54 PM 39.9 °F 31.8 °F 36.0 °F 86% 29.89 in 9.0 mi NE 15.0 mph - 0.10 in Rain Rain
8:54 PM 39.0 °F 31.4 °F 36.0 °F 89% 29.89 in 6.0 mi NNE 12.7 mph - 0.09 in Rain Rain
9:54 PM 37.9 °F 30.5 °F 35.1 °F 89% 29.91 in 10.0 mi NNE 11.5 mph - 0.03 in Rain Light Rain
10:54 PM 37.9 °F 30.0 °F 35.1 °F 89% 29.92 in 3.0 mi NNE 12.7 mph - 0.04 in Rain Rain
11:54 PM 37.9 °F 30.5 °F 36.0 °F 93% 29.94 in 4.0 mi North 11.5 mph - 0.01 in Rain Light Rain